Date String (YYYY-MM-DD hh:mm:ss) UTC,Instrument flags,Ambient pressure (hPa),Sample flow (lpm),Bypass flow (lpm),Sample temperature (°C),Ambient temperature (°C),ASC tube jacket temperature (°C),LED temperature (°C),Box temperature (°C),Sample RH (%),Span deviation,Mass concentration (μg/m³),Mass concentration (μg/m³),Mass concentration (μg/m³)
DateTimeUTC,F1_M11,P_M11,Q1_M11,Q2_M11,T1_M11,T2_M11,T3_M11,T4_M11,T5_M11,U1_M11,ZSPAN_M11,X0_M11,X2_M11,X1_M11
2023-01-08 03:00:00,,0829.9,5.00,0.00,24.6,23.3,00.0,33.4,26.4,12.5,0002.5,0021.65,0016.07,0015.36
2023-01-08 03:01:00,,0829.9,5.00,0.00,24.6,23.3,00.0,33.5,26.4,12.6,0002.3,0022.12,0016.66,0015.92
2023-01-08 03:02:00,,0829.9,5.00,0.00,24.6,23.3,00.0,33.5,26.5,12.7,0002.1,0022.57,0017.09,0016.34
2023-01-08 03:03:00,,0829.8,5.00,0.00,24.6,23.3,00.0,33.5,26.4,12.7,0002.1,0022.26,0017.29,0016.57
2023-01-08 03:04:00,,0830.0,5.00,0.00,24.6,23.3,00.0,33.5,26.5,12.6,0002.0,0022.07,0017.36,0016.66
2023-01-08 03:05:00,,0829.9,5.00,0.00,24.6,23.2,00.0,33.5,26.4,12.6,0002.1,0022.02,0017.43,0016.75
2023-01-08 03:06:00,,0829.9,4.99,0.00,24.6,23.2,00.0,33.5,26.4,12.6,0002.2,0022.06,0017.41,0016.72
2023-01-08 03:07:00,,0829.9,5.00,0.00,24.6,23.2,00.0,33.5,26.4,12.6,0002.1,0022.52,0017.36,0016.64
2023-01-08 03:08:00,,0829.8,5.01,0.00,24.6,23.2,00.0,33.5,26.5,12.6,0001.9,0022.61,0017.32,0016.56
2023-01-08 03:09:00,,0829.8,5.01,0.00,24.6,23.2,00.0,33.5,26.4,12.6,0002.0,0022.73,0017.32,0016.53
2023-01-08 03:10:00,,0829.9,5.00,0.00,24.6,23.2,00.0,33.5,26.4,12.7,0001.8,0022.89,0017.27,0016.49
2023-01-08 03:11:00,,0829.9,5.00,0.00,24.6,23.1,00.0,33.5,26.4,12.7,0002.2,0022.44,0017.22,0016.44
2023-01-08 03:12:00,,0829.8,4.99,0.00,24.6,23.1,00.0,33.5,26.4,12.7,0002.8,0022.28,0017.18,0016.40
2023-01-08 03:13:00,,0829.9,5.00,0.00,24.6,23.1,00.0,33.5,26.4,12.7,0003.1,0022.01,0017.15,0016.38
2023-01-08 03:14:00,,0829.9,5.00,0.00,24.6,23.0,00.0,33.5,26.4,12.5,0002.9,0021.97,0017.13,0016.35
2023-01-08 03:15:00,,0829.9,5.00,0.00,24.6,23.0,00.0,33.5,26.4,12.7,0003.1,0021.93,0017.15,0016.37
2023-01-08 03:16:00,,0830.0,5.00,0.00,24.5,22.9,00.0,33.4,26.4,12.9,0003.1,0022.21,0017.33,0016.52
2023-01-08 03:17:00,,0829.9,5.00,0.00,24.5,22.9,00.0,33.4,26.3,13.0,0003.0,0022.48,0017.65,0016.82
2023-01-08 03:18:00,,0829.9,5.02,0.00,24.5,22.9,00.0,33.4,26.3,13.1,0003.0,0022.29,0018.00,0017.19
2023-01-08 03:19:00,,0829.9,5.01,0.00,24.5,22.9,00.0,33.4,26.3,13.1,0002.9,0022.65,0018.43,0017.63
2023-01-08 03:20:00,,0829.9,5.01,0.00,24.5,22.9,00.0,33.4,26.3,13.0,0002.8,0023.04,0018.79,0017.96
2023-01-08 03:21:00,,0829.9,5.02,0.00,24.5,22.9,00.0,33.4,26.3,13.1,0002.7,0022.85,0019.16,0018.30
2023-01-08 03:22:00,,0829.9,5.00,0.00,24.5,22.9,00.0,33.4,26.3,13.1,0002.5,0024.18,0019.54,0018.69
2023-01-08 03:23:00,,0829.8,5.00,0.00,24.5,22.9,00.0,33.4,26.2,13.2,0001.9,0025.33,0019.99,0019.10
2023-01-08 03:24:00,,0829.8,4.99,0.00,24.5,22.9,00.0,33.4,26.3,13.2,0001.7,0025.92,0020.38,0019.48
2023-01-08 03:25:00,,0829.8,4.99,0.00,24.4,22.9,00.0,33.4,26.2,13.2,0001.5,0026.78,0020.79,0019.85
2023-01-08 03:26:00,,0829.9,5.00,0.00,24.4,23.0,00.0,33.4,26.2,13.2,0001.4,0027.88,0021.13,0020.19
2023-01-08 03:27:00,,0829.9,4.99,0.00,24.5,23.0,00.0,33.3,26.2,13.2,0001.4,0028.35,0021.32,0020.40
2023-01-08 03:28:00,,0830.0,5.00,0.00,24.5,23.0,00.0,33.3,26.2,13.1,0001.6,0028.38,0021.33,0020.43
2023-01-08 03:29:00,,0829.8,5.00,0.00,24.5,23.0,00.0,33.3,26.2,13.0,0001.4,0028.36,0021.24,0020.33
2023-01-08 03:30:00,,0829.9,5.00,0.00,24.4,23.0,00.0,33.3,26.1,12.9,0001.4,0028.13,0021.01,0020.10
2023-01-08 03:31:00,,0829.9,5.00,0.00,24.4,23.0,00.0,33.3,26.2,13.1,0001.3,0028.03,0020.95,0020.07
2023-01-08 03:32:00,,0829.9,5.02,0.00,24.4,23.0,00.0,33.3,26.2,13.2,0001.4,0027.90,0020.95,0020.07
2023-01-08 03:33:00,,0829.8,5.00,0.00,24.4,23.0,00.0,33.3,26.2,13.2,0001.2,0026.76,0020.94,0020.07
2023-01-08 03:34:00,,0829.9,5.00,0.00,24.4,23.0,00.0,33.3,26.2,13.2,0000.9,0026.05,0020.84,0020.00
2023-01-08 03:35:00,,0829.9,4.99,0.00,24.4,23.0,00.0,33.3,26.3,13.2,0001.1,0026.10,0020.81,0019.96
2023-01-08 03:36:00,,0829.9,5.00,0.00,24.4,23.0,00.0,33.3,26.3,13.2,0001.1,0026.29,0020.73,0019.94
2023-01-08 03:37:00,,0829.8,5.01,0.00,24.4,23.0,00.0,33.3,26.3,13.2,0001.3,0025.61,0020.68,0019.90
2023-01-08 03:38:00,,0829.8,5.00,0.00,24.4,23.0,00.0,33.3,26.3,13.2,0001.1,0025.25,0020.67,0019.89
2023-01-08 03:39:00,,0829.8,4.99,0.00,24.4,23.0,00.0,33.3,26.3,13.1,0000.6,0025.39,0020.73,0019.91
2023-01-08 03:40:00,,0829.9,5.01,0.00,24.4,23.0,00.0,33.3,26.3,13.0,0000.8,0025.57,0020.87,0019.99
2023-01-08 03:41:00,,0829.9,5.00,0.00,24.4,23.0,00.0,33.3,26.3,13.1,0001.3,0025.63,0020.97,0020.10
2023-01-08 03:42:00,,0829.8,4.99,0.00,24.4,23.0,00.0,33.3,26.3,13.2,0001.4,0025.65,0021.06,0020.21
2023-01-08 03:43:00,,0829.9,5.00,0.00,24.4,22.9,00.0,33.3,26.3,13.2,0001.5,0025.73,0021.11,0020.30
2023-01-08 03:44:00,,0829.9,4.99,0.00,24.4,22.9,00.0,33.3,26.2,13.1,0001.5,0025.97,0021.23,0020.37
2023-01-08 03:45:00,,0829.9,5.00,0.00,24.4,22.9,00.0,33.3,26.3,13.2,0001.2,0026.14,0021.34,0020.47
2023-01-08 03:46:00,,0829.9,5.00,0.00,24.4,22.9,00.0,33.3,26.2,13.2,0000.8,0026.12,0021.43,0020.55
2023-01-08 03:47:00,,0829.9,5.00,0.00,24.4,22.9,00.0,33.3,26.2,13.1,0000.5,0025.69,0021.50,0020.59
2023-01-08 03:48:00,,0829.8,5.00,0.00,24.4,22.9,00.0,33.3,26.2,13.2,0000.3,0025.46,0021.49,0020.58
2023-01-08 03:49:00,,0829.8,5.00,0.00,24.4,22.8,00.0,33.3,26.2,13.3,0000.5,0025.62,0021.55,0020.61
2023-01-08 03:50:00,,0829.8,4.99,0.00,24.4,22.8,00.0,33.3,26.2,13.2,0000.9,0025.90,0021.61,0020.72
2023-01-08 03:51:00,,0829.9,5.01,0.00,24.4,22.9,00.0,33.2,26.1,13.3,0000.8,0026.06,0021.64,0020.81
2023-01-08 03:52:00,,0829.8,5.00,0.00,24.4,22.9,00.0,33.2,26.2,13.3,-000.0,0026.05,0021.69,0020.89
2023-01-08 03:53:00,,0829.8,5.00,0.00,24.4,22.9,00.0,33.2,26.2,13.3,-000.3,0026.11,0021.68,0020.88
2023-01-08 03:54:00,,0829.9,5.00,0.00,24.4,22.9,00.0,33.2,26.2,13.4,-000.5,0025.74,0021.50,0020.72
2023-01-08 03:55:00,,0829.9,4.99,0.00,24.3,22.9,00.0,33.2,26.2,13.4,-000.4,0025.31,0021.25,0020.51
2023-01-08 03:56:00,,0829.9,5.01,0.00,24.3,22.9,00.0,33.2,26.2,13.4,-000.2,0025.11,0020.93,0020.21
2023-01-08 03:57:00,,0829.8,5.01,0.00,24.3,22.9,00.0,33.2,26.2,13.4,-000.1,0024.84,0020.62,0019.93
2023-01-08 03:58:00,,0829.8,5.00,0.00,24.3,22.9,00.0,33.2,26.2,13.4,-000.1,0024.37,0020.31,0019.64
2023-01-08 03:59:00,,0829.9,5.00,0.00,24.3,22.9,00.0,33.2,26.2,13.4,-000.1,0024.22,0020.05,0019.40
